This is the latest recevied weather packets stored in our database for station/object N4HAC. If no packets are shown the sender has not sent any weather packets the latest 10 day(s).
| Time | Temp. | Humidity | Pressure | Rain* | Wind** | Luminosity | Snow |
|---|---|---|---|---|---|---|---|
| 1777166404 | 11.11° C | 99% | 1006.8 hPa | 0 mm | - | 0 W/m² | - |
| 1777166100 | 11.11° C | 99% | 1006.8 hPa | 0 mm | - | 0 W/m² | - |
| 1777165797 | 11.67° C | 99% | 1006.6 hPa | 0 mm | - | 0 W/m² | - |
| 1777165495 | 11.67° C | 99% | 1006.6 hPa | 0 mm | - | 0 W/m² | - |
| 1777165190 | 11.67° C | 99% | 1006.6 hPa | 0 mm | - | 0 W/m² | - |
| 1777164886 | 11.67° C | 99% | 1006.3 hPa | 0 mm | - | 0 W/m² | - |
| 1777164584 | 11.67° C | 99% | 1006.4 hPa | 0 mm | - | 0 W/m² | - |
| 1777164279 | 12.22° C | 99% | 1006 hPa | 0 mm | - | 0 W/m² | - |
| 1777163974 | 12.22° C | 99% | 1006.2 hPa | 0 mm | - | 0 W/m² | - |
| 1777163674 | 12.22° C | 99% | 1006.3 hPa | 0.51 mm | - | 0 W/m² | - |
| 1777163374 | 12.22° C | 99% | 1006.3 hPa | 0.51 mm | - | 0 W/m² | - |
| 1777163071 | 12.22° C | 99% | 1006.3 hPa | 2.29 mm | - | 0 W/m² | - |
| 1777162771 | 12.22° C | 99% | 1006 hPa | 2.29 mm | - | 0 W/m² | - |
| 1777162467 | 12.22° C | 99% | 1006.1 hPa | 0 mm | - | 0 W/m² | - |
| 1777162165 | 12.22° C | 99% | 1006 hPa | 0 mm | - | 0 W/m² | - |
| 1777161862 | 12.22° C | 99% | 1006 hPa | 1.27 mm | - | 0 W/m² | - |
| 1777161558 | 12.78° C | 99% | 1006.1 hPa | 1.27 mm | - | 0 W/m² | - |
| 1777161255 | 12.78° C | 99% | 1005.8 hPa | 0 mm | - | 1 W/m² | - |
| 1777160950 | 12.78° C | 99% | 1005.9 hPa | 0 mm | - | 1 W/m² | - |
| 1777160646 | 12.78° C | 99% | 1005.8 hPa | 1.27 mm | - | 2 W/m² | - |
| 1777160342 | 12.78° C | 99% | 1005.8 hPa | 1.78 mm | - | 3 W/m² | - |
| 1777160038 | 12.78° C | 99% | 1005.7 hPa | 1.78 mm | - | 5 W/m² | - |
| 1777159734 | 12.78° C | 99% | 1005.9 hPa | 1.78 mm | - | 3 W/m² | - |
| 1777159430 | 12.78° C | 99% | 1005.6 hPa | 3.05 mm | - | 5 W/m² | - |
| 1777159126 | 12.78° C | 99% | 1005.6 hPa | 1.78 mm | - | 5 W/m² | - |
* Rain latest hour (hover to see other rain measurements)
** Current wind speed in m/s (hover to see current wind gust speed)